[[{"header":{"parameterUnit":"m.s-1","parameterCategory":2,"la1":30.2991,"la2":30.254,"lo1":-89.0895,"lo2":-89.0444,"dy":0.0017,"dx":0.0017,"nx":28,"ny":28,"refTime":"2024-12-13T03:00:00:Z","depth":"0","parameterNumber":2,"parameterNumberName":"U-component_of_CURRENTS"},"data":[0,0,0,0,0,0,0,0,0,0,0,0,0,0,0,0,0,0,0,0,0,0,0,0,0,0,0,0,0,0,0,0,0,0,0,0,0,0,0,0,0,0,0,0,0,0,0,0,0,0,0,0,0,0,0,0,0,0,0.2335,0.2335,0,0.2311,0.2311,0.231,0.2278,0.2277,0.2277,0.2277,0.2235,0.2234,0.2234,0,0,0,0,0,0,0,0,0,0,0,0,0,0.2352,0.2352,0.2335,0.2335,0.2335,0.2311,0.2311,0.231,0.2278,0.2277,0.2277,0.2277,0.2236,0.2235,0.2233,0,0,0,0,0,0,0,0,0,0,0,0,0,0.2335,0.2351,0.2335,0.2318,0.2317,0.2311,0.2311,0.231,0.2278,0.2277,0.2277,0.2277,0.2236,0.2235,0.2233,0.2233,0,0,0.2229,0.2229,0,0,0,0,0,0,0,0,0.2336,0.2334,0.2321,0.2319,0.2318,0.23,0.2301,0.2284,0.2278,0.2289,0.2277,0.2276,0.2257,0.2254,0.2247,0.2231,0.2229,0.2229,0.2228,0.2228,0.2228,0,0,0,0,0,0,0,0.2337,0.2335,0.2322,0.2321,0.2319,0.2312,0.2309,0.2298,0.2273,0.2288,0.2287,0.2289,0.2256,0.2248,0.2245,0.2229,0.2229,0.2228,0.2227,0.2227,0.2248,0.2249,0,0,0,0,0,0,0.2347,0.2336,0.2323,0.2322,0.233,0.2312,0.2308,0.2303,0.2274,0.227,0.2289,0.2288,0.225,0.2247,0.2244,0.2266,0.2228,0.2227,0.2226,0.2246,0.2248,0.2249,0,0,0,0,0,0,0.2347,0.2346,0.2324,0.2331,0.2329,0.2313,0.2307,0.2303,0.2297,0.2275,0.227,0.2288,0.225,0.2246,0.2243,0.2264,0.2226,0.2225,0.2245,0.2247,0.2249,0.2296,0,0,0,0,0,0,0.2348,0.2346,0.2345,0.2332,0.2329,0.2324,0.2308,0.2303,0.2301,0.2298,0.2273,0.2268,0.2249,0.2246,0.2242,0.2261,0.2224,0.2243,0.2246,0.2248,0.2293,0.2299,0.2305,0,0,0,0,0,0.2348,0.2347,0.2345,0.2343,0.2328,0.2325,0.2322,0.2308,0.2301,0.23,0.2289,0.2269,0.2259,0.2245,0.2241,0.226,0.2242,0.2245,0.2248,0.229,0.2298,0.2305,0,0,0,0,0,0,0.2349,0.2343,0.234,0.2336,0.2335,0.2321,0.2319,0.2313,0.2303,0.2301,0.2278,0.2273,0.2284,0.2267,0.2252,0.2276,0.2251,0.2253,0.2284,0.2292,0.2298,0.2315,0.2223,0,0,0,0,0,0.2352,0.235,0.2346,0.2343,0.2344,0.2334,0.2332,0.2325,0.2316,0.231,0.2296,0.2289,0.2293,0.2287,0.2284,0.2289,0.2294,0.2303,0.2309,0.2314,0.2328,0.2367,0.2378,0.2259,0.2259,0.2259,0,0,0.2351,0.2349,0.2347,0.2344,0.234,0.2345,0.233,0.233,0.2337,0.2309,0.2311,0.2309,0.2301,0.2312,0.2315,0.2298,0.2347,0.2318,0.2322,0.2333,0.2372,0.2383,0.2394,0.2261,0.2261,0.2261,0,0,0.2352,0.2348,0.2349,0.2353,0.2356,0.2354,0.2358,0.2351,0.2349,0.2353,0.2347,0.2361,0.2346,0.2357,0.2358,0.2398,0.2382,0.2394,0.2432,0.2471,0.2481,0.249,0.2495,0.2504,0.2392,0.2392,0.2392,0,0.2352,0.2349,0.235,0.2357,0.2361,0.2362,0.2367,0.2372,0.2367,0.2378,0.236,0.2383,0.2374,0.241,0.2425,0.2413,0.242,0.2401,0.2479,0.2488,0.2497,0.25,0.251,0.2395,0.2395,0.2394,0.2394,0,0.2354,0.2356,0.2359,0.2369,0.2378,0.2381,0.2394,0.2405,0.2405,0.2415,0.2447,0.2443,0.2461,0.2463,0.2453,0.2513,0.2493,0.2485,0.2459,0.2512,0.2511,0.252,0.2399,0.2398,0.2397,0.2396,0,0,0.2336,0.2355,0.2355,0.2359,0.2382,0.2383,0.2416,0.2439,0.2466,0.2474,0.2509,0.253,0.254,0.2546,0.2543,0.2575,0.2633,0.2557,0.2558,0.2561,0.2699,0.2609,0.261,0.264,0.2642,0.2644,0.2669,0,0.2332,0.2342,0.2358,0.237,0.2372,0.2399,0.2427,0.2459,0.2486,0.2523,0.2549,0.2578,0.2569,0.258,0.2618,0.2635,0.2662,0.2626,0.265,0.2651,0.2564,0.262,0.2464,0.2467,0.2678,0.2679,0.268,0,0.2319,0.2328,0.2336,0.2363,0.2368,0.2384,0.2433,0.2463,0.2535,0.2561,0.2615,0.2632,0.2691,0.2667,0.2737,0.2714,0.2717,0.2722,0.2723,0.2632,0.2579,0.2453,0.2475,0.2385,0.2694,0.2693,0.2692,0,0.2284,0.2308,0.2309,0.2318,0.2357,0.2373,0.2402,0.2472,0.251,0.2594,0.2625,0.2699,0.2723,0.2767,0.278,0.2766,0.2841,0.2819,0.2739,0.2731,0.26,0.2576,0.2537,0.2871,0.2871,0.2871,0.2871,0,0.226,0.226,0.2291,0.2291,0.2307,0.2349,0.2391,0.244,0.2524,0.2567,0.264,0.2681,0.2752,0.2793,0.2808,0.2801,0.2866,0.276,0.2743,0.2608,0.2586,0.2502,0.2471,0.2872,0.2872,0.2872,0.2872,0,0.2214,0.2234,0.2238,0.2275,0.2287,0.2301,0.2375,0.241,0.2495,0.2555,0.2579,0.2683,0.273,0.2777,0.2838,0.2813,0.2724,0.2804,0.2623,0.2585,0.24,0.2377,0.2268,0.2188,0.2717,0.2716,0.2714,0,0.2188,0.2185,0.2216,0.2218,0.2231,0.2266,0.2291,0.2386,0.2427,0.2541,0.2557,0.2633,0.2654,0.2715,0.2697,0.2697,0.2639,0.255,0.2498,0.2379,0.2343,0.2274,0.2211,0.2338,0.2334,0.233,0.2327,0,0.2142,0.2155,0.2162,0.2166,0.218,0.2203,0.2244,0.2275,0.2373,0.2411,0.2463,0.2492,0.2538,0.2475,0.2481,0.2468,0.2384,0.2471,0.2407,0.2096,0.1961,0.1877,0.2319,0.2294,0.2297,0.23,0.2302,0.2303,0.2108,0.2101,0.2106,0.2103,0.2117,0.2114,0.2099,0.2145,0.2175,0.2195,0.2303,0.2285,0.2277,0.2255,0.2239,0.2087,0.213,0.1992,0.199,0.1945,0.1814,0.2167,0.2087,0.2089,0.209,0.2092,0.2093,0,0.2049,0.2042,0.2038,0.2018,0.1989,0.2026,0.2037,0.2002,0.1971,0.2024,0.2031,0.1973,0.1881,0.1879,0.1743,0.1629,0.1565,0.1567,0.1443,0.1419,0.1779,0.1707,0.1467,0.1467,0.1467,0.1467,0.1467,0.1467,0.2017,0.1981,0.1971,0.1889,0.1869,0.1795,0.1774,0.1737,0.1747,0.1682,0.1641,0.1657,0.1644,0.1495,0.1331,0.1288,0.1179,0.1077,0.1125,0.138,0.142,0.1458,0.1384,0.108,0.1079,0.0672,0.0669,0.0666]},{"header":{"parameterUnit":"m.s-1","parameterCategory":2,"la1":30.2991,"la2":30.254,"lo1":-89.0895,"lo2":-89.0444,"dy":0.0017,"dx":0.0017,"nx":28,"ny":28,"refTime":"2024-12-13T03:00:00:Z","depth":"0","parameterNumber":3,"parameterNumberName":"V-component_of_CURRENTS"},"data":[0,0,0,0,0,0,0,0,0,0,0,0,0,0,0,0,0,0,0,0,0,0,0,0,0,0,0,0,0,0,0,0,0,0,0,0,0,0,0,0,0,0,0,0,0,0,0,0,0,0,0,0,0,0,0,0,0,0,0.0075,0.0075,0,0.0045,0.0044,0.0044,0.0023,0.0023,0.0023,0.0023,-0.0015,-0.0016,-0.0017,0,0,0,0,0,0,0,0,0,0,0,0,0,0.0079,0.008,0.0075,0.0075,0.0075,0.0045,0.0044,0.0044,0.0023,0.0023,0.0023,0.0023,-0.0014,-0.0016,-0.0017,0,0,0,0,0,0,0,0,0,0,0,0,0,0.0065,0.008,0.0075,0.0062,0.006,0.0045,0.0044,0.0043,0.0023,0.0023,0.0023,0.0023,-0.0014,-0.0015,-0.0017,-0.0025,0,0,-0.0021,-0.0022,0,0,0,0,0,0,0,0,0.0066,0.0065,0.0064,0.0063,0.0061,0.0039,0.0032,0.0021,0.0023,0.0036,0.0023,0.0023,0.0003,0.0,-0.0007,-0.0027,-0.0028,-0.0022,-0.0022,-0.0023,-0.0023,0,0,0,0,0,0,0,0.0067,0.0066,0.0062,0.0064,0.0062,0.0045,0.0043,0.0029,0.0019,0.0035,0.0034,0.0032,0.0002,-0.0005,-0.0008,-0.0029,-0.0021,-0.0023,-0.0024,-0.0024,-0.0048,-0.0048,0,0,0,0,0,0,0.0075,0.0067,0.0063,0.0061,0.0065,0.0045,0.0043,0.0045,0.002,0.0016,0.0032,0.0031,-0.0003,-0.0006,-0.0009,-0.0005,-0.0023,-0.0024,-0.0025,-0.0048,-0.0048,-0.0048,0,0,0,0,0,0,0.0075,0.0075,0.0064,0.0064,0.0062,0.0045,0.0048,0.0045,0.004,0.0018,0.0014,0.0031,-0.0003,-0.0007,-0.0015,-0.0007,-0.0025,-0.0026,-0.0049,-0.0048,-0.0048,-0.0007,0,0,0,0,0,0,0.0076,0.0076,0.008,0.0065,0.0062,0.0062,0.0048,0.0044,0.0039,0.0038,0.0016,0.0012,-0.0003,-0.0012,-0.0016,-0.001,-0.0028,-0.0049,-0.0048,-0.0048,-0.0008,-0.0005,-0.0002,0,0,0,0,0,0.0076,0.0084,0.008,0.008,0.0069,0.0062,0.0059,0.0046,0.0039,0.0041,0.0027,0.0013,-0.0012,-0.0013,-0.0018,-0.0012,-0.0049,-0.0049,-0.0048,-0.001,-0.0006,-0.0002,0,0,0,0,0,0,0.0087,0.0083,0.0078,0.0084,0.0077,0.0059,0.0059,0.005,0.0039,0.0038,0.0016,0.0012,0.0006,-0.0008,-0.0009,-0.0018,-0.0033,-0.0033,-0.0003,0.0001,0.0004,0.0021,-0.0029,0,0,0,0,0,0.0092,0.0098,0.0088,0.0093,0.0091,0.0075,0.0071,0.0063,0.0051,0.0046,0.0031,0.0016,0.0004,-0.0001,-0.0016,-0.0018,-0.0029,-0.0018,-0.0015,-0.0012,-0.0002,-0.0013,-0.001,-0.0046,-0.0046,-0.0046,0,0,0.0097,0.0096,0.0098,0.0096,0.0088,0.0093,0.0072,0.007,0.0075,0.0044,0.0045,0.0025,0.0005,0.0001,-0.0003,-0.0009,-0.0007,-0.0011,-0.0009,-0.0,-0.0012,-0.0008,-0.0005,-0.0045,-0.0046,-0.0046,0,0,0.0112,0.0109,0.012,0.0118,0.0113,0.0106,0.0108,0.0094,0.0088,0.0085,0.0065,0.0052,0.0033,0.0022,0.0013,0.0025,0.0008,0.0019,0.0052,0.0041,0.0044,0.0047,0.0039,0.0041,0.0024,0.0024,0.0024,0,0.0119,0.0134,0.0121,0.0132,0.0135,0.0116,0.0129,0.0121,0.0107,0.011,0.0092,0.0068,0.0044,0.0046,0.0048,0.0033,0.0027,0.004,0.0046,0.0048,0.005,0.0042,0.0043,0.0026,0.0026,0.0025,0.0025,0,0.0143,0.0155,0.0161,0.0172,0.0171,0.0179,0.017,0.017,0.0159,0.0153,0.0148,0.0113,0.0102,0.0088,0.0071,0.0076,0.0068,0.0049,0.0039,0.0057,0.0046,0.0047,0.0029,0.0028,0.0027,0.0027,0,0,0.0166,0.0178,0.0182,0.0197,0.0195,0.0202,0.0209,0.0217,0.0238,0.0208,0.0226,0.0188,0.017,0.0159,0.0131,0.0119,0.0118,0.0096,0.0094,0.0093,0.0102,0.0093,0.0093,0.0104,0.0104,0.0105,0.009,0,0.0193,0.0226,0.0221,0.0254,0.0271,0.0258,0.0272,0.0275,0.0275,0.0287,0.0247,0.0248,0.0197,0.0193,0.0172,0.0138,0.0122,0.0124,0.0081,0.008,0.0074,0.0094,0.0123,0.0112,0.009,0.009,0.009,0,0.0225,0.0244,0.0279,0.0307,0.0313,0.0326,0.0356,0.0369,0.0376,0.0375,0.0363,0.0333,0.0308,0.0259,0.0206,0.0213,0.0161,0.0126,0.0125,0.0105,0.0073,0.009,0.0114,0.0055,0.0091,0.0091,0.0091,0,0.0258,0.0289,0.0321,0.0329,0.0351,0.0364,0.038,0.0397,0.043,0.0435,0.0454,0.0413,0.0403,0.0333,0.0246,0.0231,0.0191,0.0157,0.0099,0.0097,0.0108,0.0107,0.0075,0.0115,0.0115,0.0115,0.0115,0,0.0296,0.0324,0.0341,0.0359,0.0408,0.0405,0.0464,0.0474,0.0508,0.0564,0.0503,0.0531,0.0422,0.0378,0.0284,0.0203,0.0215,0.0115,0.0097,0.0123,0.0123,0.006,0.0017,0.0114,0.0115,0.0115,0.0115,0,0.0329,0.0338,0.0381,0.0411,0.0424,0.0461,0.0523,0.0574,0.0589,0.0658,0.066,0.0633,0.0579,0.0462,0.0362,0.0265,0.0137,0.0137,0.0176,0.0163,0.0049,0.0007,-0.0059,-0.011,0.0078,0.0078,0.0077,0,0.035,0.0374,0.0422,0.0457,0.0472,0.0528,0.0576,0.0613,0.0676,0.0729,0.0769,0.0731,0.0724,0.0568,0.0402,0.0245,0.0146,0.0148,0.0114,0.0058,-0.0003,-0.0044,-0.0086,0.0144,0.0144,0.0144,0.0144,0,0.0392,0.0406,0.0442,0.0511,0.0564,0.0634,0.0704,0.0764,0.0821,0.0874,0.0936,0.0931,0.0794,0.0663,0.0439,0.0317,0.0109,0.0149,0.0084,0.0046,0.0007,-0.0056,0.0136,0.0147,0.0147,0.0147,0.0146,0.0146,0.0425,0.0459,0.0505,0.0572,0.0638,0.0723,0.0785,0.0869,0.0966,0.1044,0.1056,0.106,0.088,0.0592,0.0429,0.0157,0.0126,0.0069,0.0023,-0.0013,-0.0063,0.0135,0.0126,0.0125,0.0125,0.0125,0.0125,0,0.0465,0.05,0.0564,0.0641,0.0714,0.0741,0.0859,0.0922,0.1031,0.1111,0.116,0.1077,0.0868,0.061,0.0272,0.0081,-0.0019,-0.0034,-0.0078,-0.0118,0.0065,0.0068,0.0055,0.0055,0.0055,0.0055,0.0055,0.0055,0.0486,0.0544,0.0572,0.0683,0.074,0.0833,0.0896,0.0992,0.1068,0.114,0.1144,0.1132,0.0942,0.0443,0.0074,-0.0023,-0.0175,-0.0203,-0.0301,-0.0156,-0.015,-0.0144,-0.015,-0.0209,-0.0209,-0.0456,-0.0459,-0.046]}],[{"header":{"parameterUnit":"m.s-1","parameterCategory":2,"la1":30.2991,"la2":30.254,"lo1":-89.0895,"lo2":-89.0444,"dy":0.0017,"dx":0.0017,"nx":28,"ny":28,"refTime":"2024-12-13T03:00:00:Z","depth":"2","parameterNumber":2,"parameterNumberName":"U-component_of_CURRENTS"},"data":[0,0,0,0,0,0,0,0,0,0,0,0,0,0,0,0,0,0,0,0,0,0,0,0,0,0,0,0,0,0,0,0,0,0,0,0,0,0,0,0,0,0,0,0,0,0,0,0,0,0,0,0,0,0,0,0,0,0,0.2156,0.2156,0,0.2141,0.2141,0.2141,0.2122,0.2122,0.2122,0.2122,0.21,0.2099,0.2099,0,0,0,0,0,0,0,0,0,0,0,0,0,0.2173,0.2173,0.2156,0.2156,0.2156,0.2141,0.2141,0.2141,0.2122,0.2122,0.2122,0.2122,0.21,0.2099,0.2099,0,0,0,0,0,0,0,0,0,0,0,0,0,0.2161,0.2173,0.2156,0.2147,0.2147,0.2142,0.2141,0.214,0.2122,0.2122,0.2122,0.2122,0.21,0.2099,0.2099,0.2096,0,0,0.2096,0.2096,0,0,0,0,0,0,0,0,0.2161,0.216,0.2149,0.2148,0.2147,0.2136,0.2139,0.2126,0.2122,0.2129,0.2122,0.2122,0.2113,0.2111,0.2105,0.2095,0.2094,0.2096,0.2096,0.2095,0.2095,0,0,0,0,0,0,0,0.2162,0.216,0.2148,0.2149,0.2148,0.2146,0.2143,0.2136,0.212,0.2128,0.2128,0.213,0.2112,0.2106,0.2104,0.2093,0.2096,0.2095,0.2095,0.2095,0.2129,0.2131,0,0,0,0,0,0,0.2169,0.2161,0.2149,0.2148,0.2157,0.2146,0.2143,0.2138,0.212,0.2118,0.213,0.2129,0.2107,0.2105,0.2104,0.2137,0.2095,0.2094,0.2094,0.2128,0.213,0.2131,0,0,0,0,0,0,0.2169,0.2167,0.2149,0.2157,0.2154,0.2146,0.214,0.2137,0.214,0.2122,0.2119,0.2136,0.2107,0.2105,0.211,0.2134,0.2094,0.2093,0.2126,0.2128,0.213,0.2179,0,0,0,0,0,0,0.2169,0.2167,0.217,0.2157,0.2154,0.2152,0.214,0.2137,0.2142,0.2141,0.2126,0.2123,0.2107,0.2112,0.211,0.2132,0.2093,0.2124,0.2127,0.213,0.2176,0.2183,0.2188,0,0,0,0,0,0.217,0.217,0.2169,0.2168,0.2156,0.2153,0.2152,0.2143,0.2143,0.2145,0.2141,0.2124,0.2128,0.2112,0.2109,0.2132,0.2123,0.2126,0.213,0.2173,0.2181,0.2188,0,0,0,0,0,0,0.2177,0.2169,0.2167,0.2165,0.2164,0.2151,0.2155,0.2152,0.215,0.2152,0.2134,0.2132,0.215,0.2136,0.2119,0.2153,0.2126,0.2129,0.216,0.2167,0.2174,0.2181,0.2092,0,0,0,0,0,0.2181,0.218,0.2174,0.2174,0.2175,0.2169,0.2169,0.2165,0.2161,0.216,0.2153,0.2152,0.2159,0.2159,0.2159,0.217,0.217,0.2187,0.2193,0.2198,0.2204,0.2239,0.2249,0.2142,0.2142,0.2141,0,0,0.2184,0.2181,0.218,0.2176,0.2175,0.218,0.2168,0.2172,0.2181,0.2159,0.2171,0.2173,0.2169,0.2186,0.2193,0.2176,0.2228,0.2202,0.2207,0.221,0.2243,0.2254,0.2263,0.2144,0.2143,0.2143,0,0,0.2189,0.2187,0.2189,0.2192,0.2196,0.2194,0.22,0.2197,0.22,0.2212,0.2208,0.2226,0.2224,0.2232,0.2235,0.2278,0.2263,0.228,0.2313,0.2347,0.2356,0.2364,0.2369,0.2377,0.228,0.228,0.228,0,0.2196,0.2191,0.2191,0.2197,0.2201,0.2204,0.221,0.2218,0.2219,0.2231,0.2223,0.2254,0.2249,0.2283,0.2299,0.2292,0.23,0.2281,0.2355,0.2363,0.237,0.2374,0.2382,0.2283,0.2283,0.2283,0.2282,0,0.2198,0.2202,0.2206,0.2214,0.2222,0.2227,0.2239,0.2253,0.2262,0.2272,0.231,0.2311,0.2332,0.2339,0.2329,0.2384,0.2368,0.2361,0.2334,0.2384,0.2384,0.2392,0.2287,0.2286,0.2285,0.2285,0,0,0.219,0.2204,0.2206,0.2209,0.2229,0.223,0.2262,0.2284,0.2311,0.2328,0.2363,0.2389,0.2403,0.2408,0.2409,0.2436,0.2489,0.2423,0.2423,0.2424,0.255,0.247,0.247,0.25,0.2501,0.2503,0.2526,0,0.2191,0.2199,0.221,0.2223,0.2225,0.2248,0.2275,0.2304,0.2333,0.2372,0.24,0.2433,0.2427,0.2444,0.2475,0.2491,0.2514,0.2483,0.2504,0.2504,0.2425,0.2478,0.2246,0.2242,0.2533,0.2534,0.2535,0,0.2182,0.2189,0.2198,0.222,0.2225,0.2242,0.2287,0.2316,0.2382,0.241,0.2462,0.2482,0.2535,0.2517,0.2577,0.256,0.2562,0.2566,0.2567,0.2481,0.2439,0.2241,0.2244,0.2548,0.2547,0.2546,0.2545,0,0.2155,0.2176,0.218,0.2187,0.222,0.2238,0.2266,0.2329,0.2365,0.2445,0.2476,0.2543,0.2574,0.2607,0.2619,0.2608,0.2671,0.2653,0.2579,0.2572,0.2372,0.2345,0.2693,0.2693,0.2693,0.2693,0.2693,0,0.2137,0.214,0.2169,0.2169,0.2189,0.2224,0.2268,0.2313,0.2389,0.2429,0.2498,0.2534,0.2601,0.2637,0.2644,0.2636,0.2695,0.2594,0.2582,0.2381,0.2355,0.2618,0.2609,0.2694,0.2693,0.2693,0.2693,0,0.2101,0.2119,0.2125,0.216,0.2173,0.2192,0.2262,0.2294,0.2376,0.2431,0.2456,0.2547,0.2591,0.2632,0.2681,0.2653,0.266,0.2636,0.2383,0.2341,0.2528,0.2522,0.256,0.2557,0.2555,0.2554,0.2552,0,0.208,0.2079,0.2111,0.2116,0.2132,0.2171,0.2195,0.2281,0.2315,0.2421,0.2432,0.2508,0.2519,0.2569,0.2538,0.2529,0.2613,0.2313,0.225,0.2535,0.252,0.2516,0.2512,0.1999,0.1993,0.1988,0.1985,0,0.2043,0.2059,0.2066,0.2075,0.2093,0.2114,0.2154,0.2179,0.2267,0.2301,0.234,0.2362,0.2394,0.2279,0.2279,0.2251,0.2299,0.2215,0.2589,0.2073,0.2009,0.1993,0.2007,0.1942,0.1946,0.1949,0.1952,0.1953,0.2019,0.2014,0.2022,0.2023,0.2039,0.2034,0.202,0.2056,0.2078,0.2084,0.2178,0.2122,0.2127,0.2003,0.193,0.1879,0.2051,0.1952,0.1965,0.1984,0.192,0.1856,0.1747,0.175,0.1752,0.1755,0.1757,0,0.1969,0.1965,0.1964,0.1948,0.1922,0.1961,0.1964,0.192,0.1882,0.19,0.1894,0.1708,0.1603,0.1621,0.1454,0.1445,0.1425,0.1396,0.1342,0.1385,0.1424,0.1329,0.1,0.0998,0.0996,0.0994,0,0,0.1944,0.1911,0.19,0.1827,0.1815,0.1746,0.1725,0.1667,0.1645,0.1557,0.149,0.1561,0.1577,0.1281,0.1226,0.108,0.1233,0.1036,0.1642,0.1623,0.1659,0.1741,0.1645,0,0,0,0,0]},{"header":{"parameterUnit":"m.s-1","parameterCategory":2,"la1":30.2991,"la2":30.254,"lo1":-89.0895,"lo2":-89.0444,"dy":0.0017,"dx":0.0017,"nx":28,"ny":28,"refTime":"2024-12-13T03:00:00:Z","depth":"2","parameterNumber":3,"parameterNumberName":"V-component_of_CURRENTS"},"data":[0,0,0,0,0,0,0,0,0,0,0,0,0,0,0,0,0,0,0,0,0,0,0,0,0,0,0,0,0,0,0,0,0,0,0,0,0,0,0,0,0,0,0,0,0,0,0,0,0,0,0,0,0,0,0,0,0,0,0.0196,0.0196,0,0.0174,0.0174,0.0174,0.0159,0.0159,0.0159,0.0159,0.0137,0.0136,0.0135,0,0,0,0,0,0,0,0,0,0,0,0,0,0.019,0.0191,0.0196,0.0196,0.0196,0.0174,0.0174,0.0174,0.0159,0.0159,0.0159,0.0159,0.0137,0.0136,0.0135,0,0,0,0,0,0,0,0,0,0,0,0,0,0.0183,0.0191,0.0196,0.0186,0.0185,0.0174,0.0174,0.0174,0.0159,0.0159,0.0159,0.0159,0.0137,0.0136,0.0135,0.0132,0,0,0.0133,0.0132,0,0,0,0,0,0,0,0,0.0183,0.0183,0.0188,0.0187,0.0186,0.017,0.0164,0.016,0.0159,0.0168,0.0159,0.0159,0.0148,0.0146,0.0142,0.0131,0.013,0.0133,0.0132,0.0132,0.0132,0,0,0,0,0,0,0,0.0184,0.0183,0.0187,0.0188,0.0186,0.0171,0.017,0.0163,0.0158,0.0167,0.0166,0.0165,0.0147,0.0142,0.0141,0.0129,0.0133,0.0132,0.0132,0.0131,0.0115,0.0115,0,0,0,0,0,0,0.019,0.0184,0.0187,0.0186,0.0185,0.0172,0.017,0.0174,0.0158,0.0156,0.0165,0.0164,0.0144,0.0142,0.014,0.0145,0.0132,0.0131,0.0131,0.0115,0.0115,0.0115,0,0,0,0,0,0,0.019,0.019,0.0188,0.0185,0.0184,0.0172,0.0176,0.0174,0.0169,0.0157,0.0154,0.0163,0.0144,0.0141,0.0136,0.0144,0.0131,0.013,0.0115,0.0115,0.0115,0.0149,0,0,0,0,0,0,0.019,0.0191,0.0195,0.0185,0.0184,0.0187,0.0176,0.0174,0.0169,0.0168,0.0154,0.0152,0.0143,0.0138,0.0135,0.0143,0.0129,0.0115,0.0115,0.0115,0.0148,0.015,0.0152,0,0,0,0,0,0.019,0.0198,0.0195,0.0195,0.019,0.0187,0.0185,0.0175,0.0169,0.017,0.016,0.0152,0.0137,0.0137,0.0135,0.0142,0.0115,0.0115,0.0115,0.0147,0.015,0.0152,0,0,0,0,0,0,0.0195,0.0197,0.0194,0.0201,0.0196,0.0185,0.0184,0.0177,0.0169,0.0167,0.0154,0.0151,0.015,0.0139,0.014,0.0136,0.0124,0.0124,0.0149,0.0152,0.0154,0.0169,0.0129,0,0,0,0,0,0.0199,0.0207,0.0202,0.0208,0.0206,0.0195,0.0192,0.0185,0.0178,0.0174,0.0164,0.0154,0.0148,0.0145,0.0136,0.0135,0.0125,0.0137,0.0139,0.0141,0.0151,0.0141,0.0144,0.0115,0.0115,0.0115,0,0,0.0202,0.0204,0.0208,0.021,0.0204,0.0211,0.0193,0.019,0.0197,0.0173,0.0176,0.0161,0.0148,0.0148,0.0146,0.0141,0.0141,0.0141,0.0143,0.0152,0.0142,0.0144,0.0147,0.0116,0.0116,0.0116,0,0,0.0215,0.0215,0.0227,0.0227,0.0223,0.0219,0.022,0.021,0.0207,0.0205,0.0191,0.0182,0.0171,0.0166,0.0161,0.017,0.0153,0.0163,0.0189,0.018,0.0182,0.0184,0.0167,0.0168,0.0166,0.0166,0.0166,0,0.0219,0.0236,0.0228,0.0239,0.0245,0.0227,0.024,0.0235,0.0224,0.0229,0.0212,0.0199,0.0182,0.019,0.0189,0.0177,0.0165,0.0182,0.0184,0.0186,0.0187,0.0169,0.0169,0.0167,0.0167,0.0167,0.0167,0,0.0243,0.0256,0.0262,0.0276,0.0277,0.0285,0.028,0.028,0.0271,0.0268,0.0267,0.024,0.0235,0.0224,0.0209,0.0214,0.0199,0.0188,0.018,0.0192,0.0172,0.0172,0.017,0.0169,0.0169,0.0168,0,0,0.0259,0.0277,0.0281,0.0297,0.0299,0.0307,0.0317,0.0328,0.0348,0.0322,0.034,0.0314,0.0295,0.0289,0.0264,0.0251,0.0242,0.0225,0.0224,0.0214,0.0215,0.02,0.0197,0.0231,0.0231,0.0232,0.0194,0,0.0283,0.0318,0.0317,0.035,0.0369,0.0361,0.0378,0.0383,0.0384,0.0396,0.0363,0.0367,0.0322,0.0317,0.0297,0.0262,0.0243,0.0253,0.02,0.0199,0.0188,0.0197,0.0215,0.0183,0.0194,0.0194,0.0193,0,0.0312,0.0334,0.0369,0.0402,0.0409,0.0423,0.0455,0.0471,0.0479,0.0479,0.0469,0.0441,0.0417,0.0374,0.0317,0.0325,0.0273,0.0238,0.0235,0.0212,0.0182,0.0173,0.0181,0.0192,0.0192,0.0192,0.0192,0,0.0339,0.0373,0.0406,0.0415,0.0443,0.0458,0.0476,0.0497,0.0529,0.0532,0.0547,0.051,0.0498,0.0429,0.0342,0.0331,0.0279,0.0255,0.0189,0.0187,0.0188,0.0186,0.0212,0.0212,0.0212,0.0212,0.0213,0,0.0372,0.0399,0.0421,0.044,0.0489,0.0494,0.0551,0.0563,0.0596,0.0646,0.0591,0.0611,0.0511,0.0462,0.0371,0.0282,0.0297,0.0199,0.0181,0.0199,0.0198,0.0196,0.0195,0.0211,0.0211,0.0212,0.0212,0,0.0398,0.0411,0.0453,0.0488,0.0502,0.0539,0.0602,0.065,0.0666,0.0725,0.0725,0.0695,0.0633,0.0524,0.0422,0.033,0.0239,0.0199,0.0222,0.0207,0.0144,0.0145,0.0127,0.0126,0.0126,0.0125,0.0125,0,0.0415,0.0439,0.0489,0.0522,0.0538,0.0595,0.0643,0.0683,0.074,0.0781,0.0813,0.0767,0.0748,0.0585,0.043,0.0275,0.0243,0.0172,0.0152,0.0154,0.0137,0.0139,0.014,0.0161,0.016,0.016,0.016,0,0.045,0.0465,0.0501,0.0567,0.0618,0.0687,0.0754,0.0808,0.0863,0.0904,0.0945,0.0929,0.0787,0.0642,0.0427,0.0317,0.0197,0.0164,0.0171,0.018,0.0182,0.0167,0.0168,0.0159,0.016,0.016,0.016,0.016,0.0477,0.0508,0.0554,0.0618,0.0682,0.0762,0.082,0.0895,0.0978,0.1031,0.1033,0.0995,0.0847,0.0567,0.0397,0.0201,0.0209,0.0121,0.0123,0.0125,0.0136,0.0137,0.0107,0.0107,0.0107,0.0106,0.0106,0,0.0509,0.0542,0.0602,0.0676,0.0745,0.0775,0.0883,0.0935,0.1023,0.1064,0.1089,0.0924,0.0775,0.0584,0.0309,0.0152,0.0141,0.0083,0.0108,0.0111,0.0113,0.0124,0.0091,0.0091,0.009,0.0089,0,0,0.0526,0.0579,0.0605,0.0708,0.0763,0.0852,0.091,0.0982,0.1026,0.1049,0.1022,0.1011,0.0803,0.0597,0.04,0.024,0.0202,0.0201,0.0231,0.0288,0.0291,0.0155,0.0177,0,0,0,0,0]}],[{"header":{"parameterUnit":"m.s-1","parameterCategory":2,"la1":30.2991,"la2":30.254,"lo1":-89.0895,"lo2":-89.0444,"dy":0.0017,"dx":0.0017,"nx":28,"ny":28,"refTime":"2024-12-13T03:00:00:Z","depth":"4","parameterNumber":2,"parameterNumberName":"U-component_of_CURRENTS"},"data":[0,0,0,0,0,0,0,0,0,0,0,0,0,0,0,0,0,0,0,0,0,0,0,0,0,0,0,0,0,0,0,0,0,0,0,0,0,0,0,0,0,0,0,0,0,0,0,0,0,0,0,0,0,0,0,0,0,0,0.1342,0.1342,0,0.1361,0.1361,0.1361,0.1388,0.1389,0.139,0.139,0.1417,0.1417,0.1418,0,0,0,0,0,0,0,0,0,0,0,0,0,0.133,0.133,0.1342,0.1342,0.1343,0.1361,0.1361,0.1361,0.1388,0.1389,0.139,0.1391,0.1417,0.1417,0.1418,0,0,0,0,0,0,0,0,0,0,0,0,0,0.1339,0.133,0.1342,0.136,0.1362,0.1361,0.1361,0.1361,0.1388,0.1389,0.139,0.1391,0.1417,0.1417,0.1418,0.14,0,0,0.1418,0.1418,0,0,0,0,0,0,0,0,0.1339,0.134,0.1357,0.1359,0.1361,0.1375,0.1367,0.1375,0.1388,0.1376,0.139,0.1391,0.1404,0.1406,0.1404,0.1401,0.1402,0.1418,0.1418,0.1418,0.1419,0,0,0,0,0,0,0,0.1338,0.1339,0.1348,0.1357,0.136,0.1367,0.1369,0.1368,0.1384,0.1377,0.138,0.1384,0.1405,0.1404,0.1405,0.1403,0.1418,0.1418,0.1419,0.1419,0.1471,0.1473,0,0,0,0,0,0,0.1338,0.1338,0.1347,0.1349,0.1354,0.1367,0.1369,0.1368,0.1384,0.1387,0.1383,0.1385,0.1403,0.1405,0.1406,0.146,0.1418,0.1419,0.1419,0.147,0.1472,0.1473,0,0,0,0,0,0,0.1338,0.1338,0.1347,0.1346,0.1347,0.1366,0.1365,0.1368,0.1396,0.1388,0.1392,0.1412,0.1404,0.1406,0.1432,0.1459,0.1419,0.1419,0.1469,0.1471,0.1472,0.1521,0,0,0,0,0,0,0.1337,0.1338,0.1352,0.1345,0.1348,0.1362,0.1364,0.1368,0.1396,0.14,0.1413,0.1415,0.1405,0.1432,0.1432,0.1459,0.1419,0.1467,0.1469,0.1472,0.1518,0.1524,0.153,0,0,0,0,0,0.1336,0.1345,0.1353,0.1355,0.1361,0.1363,0.1365,0.138,0.1397,0.141,0.1424,0.1416,0.1448,0.1433,0.1433,0.146,0.1466,0.1469,0.1472,0.1515,0.1523,0.153,0,0,0,0,0,0,0.1348,0.1348,0.1357,0.1366,0.1374,0.1369,0.1388,0.1397,0.1418,0.1433,0.1427,0.143,0.1465,0.1456,0.144,0.1484,0.1457,0.146,0.149,0.1498,0.1504,0.1507,0.1419,0,0,0,0,0,0.1357,0.1366,0.1365,0.1378,0.1385,0.1393,0.1404,0.1413,0.1423,0.1435,0.1445,0.1459,0.1471,0.148,0.1487,0.1506,0.1506,0.1526,0.1532,0.1537,0.1541,0.157,0.1579,0.1482,0.1482,0.1482,0,0,0.1367,0.1369,0.1376,0.1383,0.1393,0.1403,0.1402,0.1424,0.1442,0.1433,0.1473,0.1483,0.1482,0.1508,0.1522,0.1507,0.1565,0.1541,0.1545,0.1546,0.1574,0.1583,0.1591,0.1484,0.1484,0.1484,0,0,0.1379,0.1393,0.1403,0.1411,0.143,0.1432,0.1446,0.1458,0.1477,0.1506,0.1511,0.1539,0.1554,0.1559,0.1562,0.1606,0.1599,0.1615,0.1645,0.1673,0.1681,0.1688,0.1701,0.1708,0.1615,0.1615,0.1615,0,0.1397,0.14,0.1408,0.1418,0.1429,0.1449,0.1461,0.1479,0.1503,0.1521,0.1529,0.1574,0.1577,0.1604,0.1623,0.1619,0.1631,0.1615,0.1681,0.1688,0.1694,0.1705,0.1713,0.1617,0.1617,0.1617,0.1617,0,0.1402,0.142,0.1428,0.1446,0.146,0.1476,0.1494,0.1524,0.1555,0.157,0.162,0.163,0.1656,0.1664,0.1657,0.1705,0.1698,0.1687,0.1661,0.1707,0.1715,0.1723,0.1621,0.162,0.1619,0.1619,0,0,0.1398,0.1426,0.1434,0.1445,0.1476,0.1481,0.1522,0.1551,0.1586,0.1625,0.1665,0.1696,0.1717,0.1722,0.1725,0.1749,0.1804,0.1743,0.1744,0.1753,0.1865,0.1729,0.1724,0.1811,0.1813,0.1814,0.1853,0,0.1403,0.1422,0.1437,0.1465,0.1473,0.1506,0.1538,0.1574,0.1614,0.1662,0.1693,0.1736,0.1734,0.1759,0.1786,0.1803,0.1827,0.1794,0.1821,0.1822,0.1693,0.1729,0.1819,0.1858,0.186,0.1861,0.1862,0,0.1393,0.1408,0.1433,0.1467,0.1476,0.1504,0.1558,0.1592,0.166,0.1696,0.175,0.1777,0.183,0.182,0.1879,0.1863,0.1873,0.1879,0.188,0.174,0.1699,0.1803,0.1875,0.1874,0.1873,0.1872,0.1872,0,0.1362,0.14,0.1422,0.1433,0.148,0.151,0.1546,0.161,0.1646,0.1731,0.1769,0.183,0.1873,0.1904,0.1924,0.1915,0.1976,0.1959,0.1843,0.1833,0.1923,0.1915,0.1998,0.1998,0.1997,0.1997,0.1997,0,0.1336,0.1357,0.1417,0.1426,0.1464,0.1504,0.1559,0.1607,0.1682,0.1721,0.1794,0.1828,0.1901,0.1938,0.1947,0.1913,0.1998,0.1851,0.1835,0.1942,0.1936,0.1928,0.1919,0.1999,0.1998,0.1998,0.1998,0,0.1292,0.1333,0.1362,0.1425,0.145,0.1482,0.1565,0.1596,0.1682,0.1738,0.1769,0.1853,0.1894,0.1938,0.1985,0.1926,0.1916,0.1882,0.1996,0.1986,0.1749,0.1743,0.1752,0.1747,0.1743,0.174,0.1738,0,0.1266,0.1279,0.1358,0.1381,0.1417,0.1475,0.1507,0.1593,0.1621,0.173,0.1739,0.1819,0.1858,0.1813,0.1875,0.1871,0.1847,0.1825,0.178,0.1741,0.1726,0.1725,0.1724,0.1732,0.1731,0.173,0.1729,0,0.1217,0.1265,0.1293,0.1341,0.1383,0.1416,0.1469,0.148,0.1566,0.166,0.1659,0.1669,0.1706,0.1727,0.1735,0.1732,0.1828,0.1785,0.1792,0.175,0.1717,0.1705,0.1709,0.1716,0.1717,0.1719,0.1719,0,0.1193,0.1203,0.1251,0.128,0.1331,0.133,0.137,0.1383,0.142,0.1525,0.1525,0.1603,0.1688,0.1656,0.1667,0.1648,0.1618,0.1552,0.1571,0.1586,0.1511,0.1443,0.1345,0,0,0,0,0,0.1155,0.1152,0.1177,0.1194,0.1239,0.1264,0.1324,0.1362,0.1445,0.14,0.1453,0.1473,0.1475,0.1522,0.1468,0.1602,0.1634,0.1531,0.1571,0.1643,0.1658,0.1584,0,0,0,0,0,0,0.1127,0.1153,0.1148,0.1114,0.1111,0.1139,0.1175,0.1231,0.1206,0.13,0.1311,0.1378,0.1411,0.1492,0.1441,0.1453,0.1443,0.1584,0.1579,0.1634,0.1648,0.166,0.159,0,0,0,0,0]},{"header":{"parameterUnit":"m.s-1","parameterCategory":2,"la1":30.2991,"la2":30.254,"lo1":-89.0895,"lo2":-89.0444,"dy":0.0017,"dx":0.0017,"nx":28,"ny":28,"refTime":"2024-12-13T03:00:00:Z","depth":"4","parameterNumber":3,"parameterNumberName":"V-component_of_CURRENTS"},"data":[0,0,0,0,0,0,0,0,0,0,0,0,0,0,0,0,0,0,0,0,0,0,0,0,0,0,0,0,0,0,0,0,0,0,0,0,0,0,0,0,0,0,0,0,0,0,0,0,0,0,0,0,0,0,0,0,0,0,0.0206,0.0206,0,0.0201,0.0201,0.02,0.0203,0.0203,0.0204,0.0204,0.021,0.021,0.021,0,0,0,0,0,0,0,0,0,0,0,0,0,0.0193,0.0193,0.0206,0.0206,0.0206,0.0201,0.0201,0.02,0.0203,0.0203,0.0204,0.0204,0.021,0.021,0.021,0,0,0,0,0,0,0,0,0,0,0,0,0,0.0194,0.0194,0.0206,0.0207,0.0207,0.0201,0.0201,0.02,0.0203,0.0203,0.0204,0.0204,0.021,0.021,0.021,0.0205,0,0,0.021,0.021,0,0,0,0,0,0,0,0,0.0194,0.0195,0.0207,0.0207,0.0207,0.0203,0.0198,0.0203,0.0203,0.0204,0.0204,0.0204,0.0209,0.0209,0.0207,0.0205,0.0206,0.021,0.021,0.021,0.021,0,0,0,0,0,0,0,0.0194,0.0195,0.0203,0.0207,0.0207,0.0199,0.0199,0.0199,0.0205,0.0204,0.0204,0.0204,0.0209,0.0207,0.0207,0.0206,0.021,0.021,0.021,0.021,0.0212,0.0212,0,0,0,0,0,0,0.0196,0.0195,0.0204,0.0203,0.0201,0.0199,0.02,0.0204,0.0205,0.0205,0.0204,0.0204,0.0207,0.0207,0.0207,0.0221,0.021,0.021,0.021,0.0212,0.0212,0.0212,0,0,0,0,0,0,0.0196,0.0197,0.0204,0.0199,0.0199,0.0199,0.0204,0.0204,0.0206,0.0205,0.0205,0.0207,0.0207,0.0207,0.0212,0.0221,0.021,0.021,0.0212,0.0212,0.0212,0.0237,0,0,0,0,0,0,0.0196,0.0197,0.0203,0.0199,0.02,0.0205,0.0203,0.0203,0.0206,0.0206,0.0208,0.0208,0.0207,0.0212,0.0212,0.0221,0.021,0.0212,0.0212,0.0212,0.0236,0.0238,0.0239,0,0,0,0,0,0.0196,0.0202,0.0203,0.0204,0.0206,0.0206,0.0205,0.0205,0.0206,0.0208,0.0209,0.0209,0.0212,0.0212,0.0212,0.0221,0.0212,0.0212,0.0212,0.0235,0.0237,0.0239,0,0,0,0,0,0,0.0198,0.0203,0.0204,0.0212,0.0211,0.0206,0.021,0.0208,0.021,0.0212,0.021,0.021,0.0217,0.0213,0.0213,0.022,0.0211,0.0211,0.0229,0.0231,0.0233,0.0243,0.021,0,0,0,0,0,0.0201,0.021,0.0209,0.0216,0.0216,0.0213,0.0213,0.0213,0.0213,0.0214,0.0215,0.0215,0.0216,0.0219,0.0218,0.0223,0.0211,0.0228,0.0229,0.0231,0.0238,0.0225,0.0226,0.0212,0.0212,0.0212,0,0,0.0204,0.0208,0.0213,0.0217,0.0217,0.0224,0.0214,0.0217,0.0225,0.0214,0.0227,0.0221,0.0218,0.0225,0.0227,0.0224,0.0226,0.0231,0.0233,0.0239,0.0225,0.0226,0.0228,0.0212,0.0212,0.0212,0,0,0.0215,0.0218,0.0229,0.0231,0.0233,0.0232,0.0234,0.0232,0.0235,0.0241,0.0236,0.0237,0.0239,0.0239,0.024,0.0249,0.0234,0.0246,0.0266,0.0253,0.0254,0.0255,0.0232,0.0231,0.0249,0.0249,0.0249,0,0.0218,0.0234,0.0231,0.0241,0.0248,0.0238,0.0251,0.0251,0.0251,0.0258,0.025,0.0253,0.0248,0.0259,0.0261,0.0254,0.0239,0.0261,0.0256,0.0257,0.0257,0.0234,0.0232,0.025,0.025,0.025,0.025,0,0.0237,0.025,0.0256,0.0271,0.0275,0.0284,0.0284,0.0288,0.0288,0.029,0.0298,0.0285,0.0289,0.0283,0.0277,0.028,0.0265,0.0259,0.0253,0.026,0.0235,0.0232,0.0252,0.0251,0.0251,0.0251,0,0,0.0246,0.0266,0.027,0.0285,0.0294,0.0301,0.0314,0.0327,0.0344,0.0333,0.035,0.0342,0.0333,0.0332,0.0318,0.0305,0.029,0.0286,0.0285,0.0267,0.0252,0.0231,0.0227,0.0282,0.0282,0.0282,0.0229,0,0.0264,0.0293,0.0298,0.0328,0.0344,0.0344,0.0362,0.0371,0.0376,0.0387,0.0368,0.0378,0.0353,0.0354,0.0337,0.0306,0.0287,0.0304,0.0245,0.0243,0.0227,0.0225,0.0282,0.0228,0.0227,0.0227,0.0226,0,0.0283,0.0302,0.0335,0.0367,0.0375,0.0391,0.0421,0.0437,0.0446,0.045,0.0447,0.0431,0.0414,0.0387,0.0335,0.0347,0.0303,0.0272,0.0269,0.0242,0.0219,0.022,0.0222,0.0223,0.0223,0.0223,0.0223,0,0.0296,0.033,0.036,0.0369,0.04,0.0418,0.0438,0.046,0.0485,0.0491,0.0502,0.0476,0.0465,0.041,0.0341,0.0339,0.0274,0.0263,0.02,0.0197,0.0221,0.0221,0.0222,0.0222,0.0223,0.0223,0.0223,0,0.0314,0.034,0.037,0.0386,0.0431,0.0444,0.0494,0.0507,0.0534,0.0567,0.0538,0.0542,0.0471,0.0423,0.0353,0.0269,0.0282,0.0204,0.0185,0.0231,0.0232,0.0219,0.0219,0.0221,0.0221,0.0222,0.0222,0,0.0324,0.0342,0.0381,0.0421,0.0438,0.0472,0.0532,0.0567,0.0586,0.0621,0.0624,0.0595,0.0533,0.045,0.0359,0.029,0.0209,0.0174,0.0224,0.0209,0.0136,0.0138,0.0101,0.01,0.0099,0.0098,0.0097,0,0.033,0.0351,0.0406,0.0435,0.0456,0.051,0.055,0.059,0.0627,0.0651,0.0663,0.0619,0.0584,0.0439,0.0349,0.0211,0.0188,0.0136,0.0139,0.0139,0.0125,0.0128,0.0132,0.0096,0.0096,0.0095,0.0095,0,0.0343,0.0364,0.0396,0.0456,0.0503,0.056,0.0616,0.0643,0.0687,0.0704,0.0693,0.0621,0.0548,0.0437,0.0329,0.023,0.0166,0.0126,0.0127,0.0129,0.0132,0.012,0.0124,0.0092,0.0092,0.0093,0.0093,0,0.0354,0.0377,0.042,0.0473,0.0534,0.0587,0.062,0.0658,0.0693,0.0714,0.0708,0.0632,0.0596,0.0447,0.0348,0.0248,0.0219,0.0174,0.0172,0.0175,0.0209,0.0225,0.0198,0,0,0,0,0,0.0362,0.0385,0.0434,0.0489,0.0551,0.0585,0.0653,0.0682,0.0718,0.0712,0.0713,0.0644,0.0503,0.0448,0.0343,0.0322,0.0196,0.0194,0.0142,0.0074,0.0078,0.0104,0,0,0,0,0,0,0.0365,0.0407,0.0428,0.0492,0.0531,0.0599,0.0642,0.0669,0.0669,0.0688,0.062,0.0598,0.0467,0.0559,0.0334,0.0306,0.0253,0.0137,0.0134,0.0072,0.0075,0.0078,0.0106,0,0,0,0,0]}]]